[ hide orbit diagram ]
For accurate long-term ephemerides, please instead use our Horizons system.This orbit viewer was implemented using two-body methods, and hence should not be used for determining accurate long-term trajectories (over several years or decades) or planetary encounter circumstances.
Orbital Elements at Epoch 2459184.5 (2020-Dec-01.0) TDB
Reference: JPL 2 (heliocentric ecliptic J2000)
Element | Value | Uncertainty (1-sigma) | Units |
e | 1.000959428016853 | 0.00079452 | |
a | -3506.449323365508 | 2903.4 | au |
q | 3.364185720512125 | 0.00034121 | au |
i | 88.58638340907569 | 0.0093463 | deg |
node | 75.51260802233716 | 0.0045655 | deg |
peri | 24.48488838540301 | 0.013981 | deg |
M | 4.156760521243487E-6 | 5.4164e-06 | deg |
tp | 2459183.624306187982 (2020-Nov-30.12430619) | 0.064626 | TDB |
period | n/a n/a | n/a n/a | d yr |
n | 4.746819566606741E-6 | 5.8957e-06 | deg/d |
Q | n/a | n/a | au |
|
| | Orbit Determination Parameters
Additional Information
|
[ show covariance matrix ]
|